Weather in Las Vegas

United States     36°14′01″N   115°14′29″W
temp.,
°C
wind,
m/s
gust,
m/s
humid.,
%
clouds,
%
prec.,
mm/h
press.,
hPa
HPBL,
m
18 may, tue
tue1823:00+21n3333100 0.3 100941
02:00+21nw44323 0.2 100844
05:00+20nw56330 0.2 100972
08:00+25n24220 0.0 1009624
11:00+30n46150 0.0 10082888
14:00+33nw25110 0.0 10053761
17:00+34nw5670 0.0 10024016
20:00+29wsw66110 0.0 1002102
19 may, wed
wed1923:00+25wnw33140 0.0 100432
02:00+22wnw22170 0.0 100320
05:00+20ese12192 0.0 100419
08:00+23ese33169 0.0 1005432
11:00+28se2494 0.0 10031404
14:00+32s7773 0.0 10002064
17:00+32ssw101050 0.0 9972271
20:00+27sw810100 0.0 998205
20 may, thu
thu2023:00+21sw33150 0.0 100048
02:00+18sw45210 0.0 100070
05:00+15sw11260 0.0 100027
08:00+21s15200 0.0 1001610
11:00+25ssw1015150 0.0 10011840
14:00+28sw141770 0.0 9992199
17:00+26sw121530 0.0 9972123
20:00+17wsw3490 0.0 999100
21 may, fri
fri2123:00+13w33120 0.0 100179
02:00+13wnw68140 0.0 1003124
05:00+11w55180 0.0 100584
08:00+15w23190 0.0 1007939
11:00+18ssw25141 0.0 10073053
14:00+20w510112 0.0 10063878
17:00+20sw99810 0.0 10063369
20:00+17wsw81111100 0.0 1008395
22 may, sat
sat2223:00+16ssw4414100 0.0 1010175
02:00+12nw332863 0.2 101162
05:00+11nnw33290 0.2 101240
08:00+14ese01240 0.0 1013540
11:00+18ese34160 0.0 10132348
14:00+21se441213 0.0 10103419
17:00+20s221660 0.0 10101921
20:00+15sw222313 0.0 101051